Wind_Speed
42 42 43 43 42 41 39 38 38 38 38 37 36 35 35 35 34 33 33 31 30 30 29 27 25 24 22 21 22 23 24 24 24 23 22 21 19 17 16 14 13 12 11 11 10 10 14 21 26 27 26 27 30 32 33 34 35 36 37 38 38 38 38
41 40 40 39 38 37 36 36 37 37 37 37 36 36 36 35 34 32 31 29 28 27 25 24 23 22 21 21 22 24 24 24 24 23 23 22 20 18 16 15 14 13 12 12 11 10 10 12 17 23 27 29 30 31 33 34 36 37 39 40 40 40 41
37 37 36 35 35 35 35 35 36 36 36 36 36 36 36 35 33 30 29 28 27 25 23 21 20 20 21 23 24 25 25 25 25 24 24 23 21 18 16 16 16 15 14 13 12 12 11 11 11 14 21 26 30 32 34 36 37 38 39 40 41 42 42
36 35 34 33 33 34 34 34 34 34 34 34 35 35 34 33 32 30 28 27 26 24 21 20 20 22 23 25 27 27 27 27 26 25 25 23 21 19 17 16 17 17 16 15 14 13 13 13 13 12 15 19 23 27 31 33 34 36 38 39 41 42 43
40 38 36 35 35 35 35 34 33 33 33 33 33 33 33 33 32 31 30 29 27 26 25 25 26 28 29 30 30 30 29 28 27 26 26 24 22 20 18 17 18 18 17 17 16 16 15 16 16 15 16 17 19 22 25 26 26 28 31 33 35 36 37
43 42 41 40 39 39 37 36 34 34 34 34 34 34 34 34 33 33 33 33 33 32 32 33 33 34 34 33 32 31 30 28 27 27 26 25 23 21 20 19 19 19 19 19 19 19 19 19 19 20 20 21 22 23 24 24 24 25 27 29 30 32 32
42 42 43 43 43 42 41 40 38 37 37 36 36 36 36 37 37 37 37 37 37 37 36 36 36 36 35 34 33 31 30 28 28 28 27 26 24 23 22 22 22 21 21 21 21 21 22 22 23 24 25 25 25 26 27 27 27 27 28 30 30 31 31
44 42 42 43 43 42 41 41 41 41 41 40 39 39 39 39 40 41 42 41 40 39 38 37 37 36 35 34 33 32 31 29 28 28 28 27 26 25 25 25 24 24 24 25 25 25 25 26 27 27 28 29 29 30 30 30 30 30 31 31 32 32 33
48 46 44 43 42 41 41 41 42 43 44 44 43 41 41 42 43 44 44 44 43 41 40 39 38 37 36 35 34 33 31 29 27 27 28 29 28 27 27 27 27 28 28 29 28 28 29 30 30 30 31 32 32 32 32 32 32 32 33 33 34 34 35
45 47 48 47 46 44 43 42 42 43 43 43 43 42 41 42 43 44 45 45 45 44 42 41 39 37 36 35 33 32 29 27 27 28 29 30 29 28 28 29 30 31 31 32 32 32 34 34 32 33 35 35 35 34 34 33 33 33 34 35 35 36 37
45 46 48 49 49 47 45 44 43 42 42 41 41 41 42 43 44 45 45 45 44 43 41 39 38 36 35 34 32 29 26 26 27 29 31 31 31 30 30 31 32 33 35 37 37 37 37 35 34 36 39 39 38 37 36 35 34 34 35 36 37 37 39
44 44 44 45 46 47 46 45 43 42 41 41 41 42 42 43 43 43 42 42 41 40 39 38 37 36 35 32 29 27 26 28 30 32 32 33 32 32 32 33 35 36 38 40 40 41 38 34 35 40 42 42 41 39 38 36 35 35 36 38 38 39 40
39 41 42 43 43 44 44 44 43 42 42 42 43 43 43 43 42 41 40 40 40 40 39 39 38 37 35 32 30 30 31 32 32 33 33 33 34 35 36 37 38 39 40 40 41 40 36 35 39 42 42 43 43 41 39 37 36 37 38 38 38 38 39
36 38 38 38 39 41 42 43 44 44 44 44 45 45 44 43 41 41 41 41 41 41 41 40 40 38 36 35 34 34 35 34 34 34 35 35 37 38 39 39 39 40 39 39 40 38 36 39 43 43 41 42 43 42 40 39 39 40 40 39 39 40 41
38 39 38 38 40 42 43 44 45 45 45 46 45 45 44 43 42 42 42 42 42 41 40 40 39 38 37 36 36 36 36 35 35 35 37 38 39 40 40 40 40 39 38 38 38 38 40 43 45 43 41 40 42 43 42 41 41 42 42 42 42 43 46
41 42 42 42 43 44 44 45 46 46 46 45 44 44 43 43 43 43 43 43 43 41 40 39 38 37 37 37 37 36 36 36 36 37 38 39 40 41 41 40 40 39 38 39 39 41 44 45 45 43 42 40 42 43 43 44 45 45 44 44 45 47 51
47 46 45 45 44 43 42 43 43 43 43 43 41 41 42 42 43 43 43 43 42 41 40 39 39 38 38 38 37 37 37 38 39 40 40 41 42 42 42 42 41 41 41 42 44 45 46 45 44 43 43 42 43 44 45 47 48 48 47 47 49 52 57
52 51 49 47 44 42 41 41 40 39 40 40 39 39 39 40 42 42 42 41 40 40 40 40 40 40 39 39 38 38 39 40 41 42 43 43 44 44 44 44 44 44 44 45 46 47 46 46 45 44 44 44 45 46 48 49 50 50 50 52 55 58 61
49 49 49 46 44 42 42 43 43 44 45 44 43 43 42 42 43 43 42 40 40 40 41 42 42 42 42 41 41 41 42 43 44 44 45 46 47 47 47 47 46 46 47 47 47 48 48 47 46 46 46 47 48 49 50 52 52 53 55 57 60 62 64
45 45 45 45 46 45 45 46 47 49 50 49 49 49 47 46 46 44 43 42 42 43 44 45 45 45 45 45 45 44 44 45 45 46 48 49 49 49 49 48 47 48 49 49 49 49 49 49 49 50 51 51 52 52 53 55 56 58 60 61 63 65 67
45 44 44 45 47 47 47 47 48 49 50 51 52 51 49 48 47 46 46 46 46 47 47 47 48 49 49 48 47 46 46 46 46 48 49 49 49 49 49 49 49 50 50 50 49 50 50 51 52 53 54 55 55 56 57 58 60 62 63 65 67 68 69
46 45 44 46 48 48 48 49 49 48 47 48 51 52 50 49 49 49 50 49 49 50 50 51 50 50 49 48 46 46 46 46 47 48 50 50 50 50 51 51 51 50 49 49 50 51 52 53 54 55 56 57 59 60 61 62 63 64 66 68 70 71 72
51 49 47 47 48 48 49 50 49 47 46 46 49 51 51 50 50 50 50 50 49 50 50 51 50 48 47 46 46 46 46 47 49 50 51 52 51 51 51 51 50 50 50 50 51 52 54 55 56 57 59 61 62 63 64 65 66 67 69 72 73 74 73
54 53 52 49 46 44 45 46 46 47 48 49 51 51 51 51 50 49 49 49 49 49 48 48 48 46 45 45 46 47 48 49 50 51 52 53 52 52 52 53 54 54 54 54 55 56 57 58 60 62 64 64 65 66 67 67 68 70 73 75 75 74 70
53 53 54 53 51 49 47 48 49 49 50 51 52 51 51 50 50 51 51 51 51 51 50 49 48 47 47 47 48 49 50 51 52 53 54 55 55 57 59 60 61 60 59 59 59 60 61 63 65 66 67 68 68 69 69 70 71 74 76 76 74 70 65
53 53 53 54 54 55 55 56 56 56 55 55 54 54 54 55 55 55 55 55 55 55 53 52 51 51 51 51 52 52 53 53 54 56 57 58 60 62 64 65 65 65 64 64 64 65 66 68 69 69 69 69 70 71 72 74 77 78 76 73 69 65 62
55 55 55 55 55 56 58 58 59 58 58 57 57 58 59 59 59 59 59 59 59 59 58 57 56 55 54 53 53 54 55 56 58 59 61 62 64 66 67 67 67 68 68 68 68 69 70 70 71 70 69 70 72 74 76 78 78 75 71 68 64 62 61
57 58 59 59 59 59 60 61 61 61 60 60 61 61 62 62 62 62 63 63 63 63 63 63 62 61 60 59 59 60 61 62 63 65 67 68 70 71 71 70 70 70 70 70 70 71 71 71 71 70 71 73 75 76 77 75 73 70 67 65 63 62 61
61 62 63 63 62 63 63 64 65 64 64 64 64 65 66 66 66 66 66 67 67 67 67 68 68 68 67 67 67 67 67 68 69 71 73 75 75 75 74 73 72 72 71 71 71 72 71 70 70 70 72 73 73 73 72 70 68 67 66 64 62 62 62
63 64 65 66 66 66 66 67 68 68 67 67 67 68 69 69 69 69 70 70 71 71 71 71 71 71 72 72 71 71 72 73 74 76 78 79 78 77 76 74 73 73 73 73 73 73 72 70 70 71 71 70 70 69 68 67 67 67 67 66 64 65 65
63 64 65 66 67 68 69 70 71 71 70 69 69 71 71 70 70 71 71 72 73 73 73 74 74 74 74 74 75 75 75 77 78 80 81 81 80 79 78 76 76 76 75 75 75 74 72 71 71 71 69 69 69 68 68 70 71 71 71 70 69 69 70
64 65 65 66 67 69 70 71 72 73 72 72 72 73 73 73 72 73 73 74 75 75 76 76 76 77 77 77 78 79 80 81 82 83 84 83 83 82 81 79 79 79 78 78 78 77 75 73 72 72 71 72 72 73 75 77 76 75 74 74 73 73 73
67 68 68 69 69 70 71 72 73 74 74 74 74 75 75 75 75 75 76 76 77 78 78 79 79 80 81 82 83 85 86 86 87 87 88 87 87 87 85 83 84 85 83 81 80 79 78 77 76 76 77 77 78 79 80 80 78 77 76 75 74 74 74
70 70 71 72 73 73 74 74 75 75 76 77 77 78 78 79 79 79 79 79 80 81 82 83 84 85 86 87 89 90 90 91 91 91 91 91 90 90 88 86 86 87 87 85 83 81 80 80 79 79 79 79 79 78 78 78 78 78 77 76 75 74 74
74 74 74 75 75 76 76 77 77 78 78 79 80 80 81 82 82 83 83 84 84 85 86 88 89 90 91 92 92 93 94 95 95 94 93 93 92 90 89 87 85 85 85 84 83 82 81 81 80 79 79 79 78 77 76 77 77 78 77 77 76 76 76
77 77 77 78 78 78 79 79 80 81 81 82 83 83 84 85 85 86 87 88 88 89 90 91 92 94 95 96 96 97 98 98 98 97 95 94 93 92 90 88 85 84 82 81 80 80 80 80 80 80 80 80 79 78 78 78 78 79 79 78 78 78 78
80 80 81 81 81 81 81 82 82 83 83 84 85 86 86 87 88 89 89 90 91 92 93 93 95 96 98 99 100 100 100 100 99 98 96 94 93 91 88 86 85 83 82 82 81 81 81 81 82 82 83 83 82 81 80 80 81 81 81 80 80 80 81
Wind_Direction
259 259 259 261 264 267 270 273 275 278 281 283 285 287 289 291 292 294 296 298 300 302 304 307 310 311 309 305 302 301 302 304 308 314 317 318 318 318 320 325 331 334 332 325 312 285 261 254 255 259 263 265 266 267 267 267 267 269 271 271 271 271 270
262 263 263 264 266 268 270 273 276 279 282 284 285 286 287 289 292 294 296 298 299 300 303 306 309 309 308 305 303 303 304 306 308 311 313 313 312 312 311 314 319 324 326 324 320 314 296 276 265 258 255 256 259 261 262 264 265 268 269 270 271 271 271
266 266 267 268 270 271 273 276 279 281 283 284 284 284 286 288 290 293 295 297 297 298 301 304 307 309 309 307 306 305 305 306 306 308 309 309 308 306 304 305 309 314 320 321 318 315 310 305 294 272 259 255 255 255 256 257 259 262 264 266 268 269 271
267 266 266 270 274 275 276 278 280 281 282 282 283 283 284 286 289 291 293 295 295 296 298 300 304 307 310 310 309 307 305 304 304 304 305 306 304 302 298 297 300 306 313 316 313 310 307 306 302 289 272 264 259 256 256 257 259 261 263 265 268 270 271
265 264 263 267 273 276 275 275 276 277 278 278 279 280 282 284 287 289 291 292 293 293 294 296 299 302 305 308 309 308 306 303 301 301 303 304 301 297 293 292 294 298 303 307 307 306 305 306 303 294 282 275 269 264 263 265 266 266 267 269 270 271 273
264 262 262 265 271 273 272 271 271 272 273 275 276 278 280 283 286 288 289 290 290 291 292 293 296 299 301 304 307 307 306 303 300 299 303 304 300 295 292 290 291 294 296 298 300 301 303 304 302 296 289 284 279 275 275 276 276 274 272 272 272 273 274
262 261 262 265 270 272 272 270 270 271 272 273 275 277 279 282 284 286 288 288 288 289 290 292 294 297 300 302 305 305 303 301 298 299 303 304 300 296 293 292 292 292 292 294 295 297 300 301 299 295 292 290 286 283 282 282 282 280 277 275 274 275 275
261 261 262 264 267 269 270 270 270 271 271 272 274 276 278 280 282 284 285 286 286 287 289 291 294 296 298 301 303 302 300 299 297 298 302 303 300 296 293 293 293 292 293 295 296 298 301 301 299 296 294 292 290 288 287 286 286 285 283 281 280 279 279
260 261 263 265 266 266 267 269 270 271 271 272 274 275 277 279 280 282 284 284 285 286 288 290 293 295 297 300 301 299 298 296 295 296 300 302 300 295 293 292 293 294 296 297 298 300 303 303 300 298 296 294 291 289 288 288 288 288 288 286 284 283 283
263 264 266 268 269 269 268 269 270 271 272 272 274 276 277 279 280 281 283 284 285 286 288 289 291 294 297 298 298 296 295 294 294 296 299 300 297 293 291 292 293 296 299 300 299 300 302 302 301 301 299 295 291 288 286 286 287 289 289 288 287 285 285
267 268 269 270 269 269 268 268 269 270 272 274 276 277 278 279 280 281 283 284 285 286 287 289 291 293 295 295 294 292 293 294 295 296 297 296 293 290 289 291 294 296 298 299 298 299 300 300 301 304 303 298 293 289 286 285 286 288 289 289 288 286 286
266 267 268 268 268 267 268 269 270 272 274 275 277 278 279 280 281 282 283 284 285 285 286 288 291 293 294 292 290 291 294 296 297 296 294 291 288 287 288 291 293 294 296 297 297 297 296 296 301 307 306 301 295 290 286 284 285 288 289 289 287 286 286
264 267 268 267 266 267 270 273 275 275 275 275 276 276 277 278 279 280 281 282 283 284 286 288 291 293 292 289 288 291 295 298 297 294 290 286 285 286 287 290 291 293 294 294 294 294 291 293 300 305 306 302 296 291 286 283 283 286 288 288 287 288 289
261 265 264 262 264 269 273 276 276 276 276 275 275 275 275 276 277 278 279 280 282 285 287 289 291 292 291 289 289 292 295 296 294 290 286 283 283 284 287 289 291 293 293 292 291 289 288 293 299 302 303 301 295 290 284 280 282 286 288 288 290 294 297
256 257 259 261 267 272 274 274 274 274 275 275 275 275 274 274 274 276 279 281 284 286 288 289 290 291 290 290 290 292 293 292 290 287 284 282 283 285 287 289 291 291 291 290 288 287 289 295 298 298 300 299 293 288 283 280 282 286 288 289 293 298 303
257 257 261 267 271 273 272 272 273 274 274 274 274 274 274 275 276 279 282 284 286 286 286 287 288 288 288 288 289 289 288 288 287 286 284 283 284 286 288 289 289 289 288 287 287 288 291 295 296 296 296 296 293 287 282 280 282 285 287 290 293 297 303
258 261 265 269 271 271 269 270 272 272 272 271 271 271 273 276 278 281 283 284 284 284 283 284 285 286 286 287 287 286 285 284 285 285 285 285 287 288 288 289 290 289 288 287 288 291 293 294 294 293 292 292 291 287 283 281 282 284 287 289 292 296 302
259 262 265 267 267 265 263 265 266 266 266 266 267 268 270 274 277 280 282 281 281 282 282 284 286 287 287 287 286 284 282 282 284 285 286 287 288 289 290 291 291 291 290 290 290 291 292 293 292 291 290 290 289 286 284 283 283 284 286 289 292 296 302
257 259 261 261 261 260 259 260 261 261 262 263 264 266 268 272 276 279 279 280 280 281 283 284 285 286 286 286 284 283 282 283 285 285 286 288 289 290 291 292 292 292 292 292 291 291 292 292 291 291 290 290 289 287 285 284 284 285 287 290 293 298 303
254 255 258 258 259 258 259 260 261 261 262 263 264 265 269 272 275 276 277 278 280 280 281 282 283 283 285 285 284 284 284 285 285 286 287 289 290 291 292 293 294 294 293 293 292 291 292 292 292 292 292 292 291 289 288 286 286 287 290 292 295 299 303
251 253 256 258 258 258 259 261 261 262 263 264 265 267 270 273 274 275 276 277 278 279 279 279 280 282 283 283 283 283 284 285 286 288 289 291 291 292 293 294 294 294 293 293 292 291 291 292 293 293 293 293 292 290 289 289 289 290 292 294 297 300 303
249 252 253 254 255 256 256 258 260 263 265 266 269 272 274 275 277 278 279 279 279 279 279 279 280 281 281 280 281 283 285 286 288 290 291 292 292 293 294 295 295 294 292 290 289 289 290 291 292 293 293 292 291 290 289 289 290 291 293 295 298 300 302
247 249 249 251 254 256 257 258 260 261 263 268 273 276 278 279 280 281 282 282 281 281 281 281 282 281 280 280 282 284 286 288 290 291 292 292 292 293 293 294 295 293 290 288 287 286 287 288 289 290 291 291 290 289 289 289 290 291 294 296 298 299 300
246 246 246 248 251 254 257 259 261 263 265 270 274 276 278 280 280 279 279 279 278 279 280 282 284 284 282 282 284 286 288 290 291 292 292 293 292 292 293 293 293 292 290 288 286 285 286 287 287 289 290 290 288 287 287 287 289 291 293 295 296 297 298
245 247 248 249 249 250 252 255 259 262 265 268 270 272 272 273 272 273 274 274 275 277 278 280 282 283 283 283 285 287 289 290 290 291 291 291 291 291 292 292 292 291 289 288 286 285 285 286 287 288 289 288 286 285 285 285 287 290 292 293 294 295 296
242 246 249 251 253 254 255 256 258 260 262 264 265 266 266 266 267 269 270 272 273 275 277 278 279 280 281 283 284 286 287 288 289 289 290 289 289 290 291 291 291 290 289 288 287 285 285 286 287 288 287 285 284 283 283 284 287 290 292 293 295 296 296
241 244 247 251 254 256 258 260 261 261 262 263 264 265 265 266 268 269 270 271 272 273 274 275 276 278 280 281 283 284 285 286 287 288 289 290 290 291 292 291 291 290 290 289 287 286 286 287 287 287 285 283 282 282 284 286 289 291 293 294 295 295 294
243 245 247 250 253 256 258 260 261 262 262 263 264 265 266 267 268 269 270 270 270 270 271 272 273 275 277 279 280 282 283 285 287 288 290 291 292 292 293 292 292 291 290 288 286 285 286 286 286 285 283 282 282 284 286 288 290 292 293 293 293 292 291
247 248 249 251 254 256 259 260 261 262 263 265 265 266 266 267 268 268 268 268 269 269 269 270 271 273 274 276 278 279 282 284 286 288 289 291 292 292 292 292 292 290 288 286 285 285 285 286 285 283 282 282 284 286 287 288 289 290 290 291 290 289 288
251 252 253 253 255 256 258 260 261 263 264 265 265 266 266 267 267 268 268 268 269 269 269 270 271 272 273 275 276 278 280 282 284 286 288 289 290 291 292 291 290 288 286 285 284 285 285 284 283 283 282 283 284 285 285 286 286 287 288 288 286 285 285
255 255 256 256 257 257 258 260 261 262 263 263 263 264 266 267 267 268 268 269 269 270 270 270 271 272 273 274 276 277 279 281 283 285 287 289 289 290 291 291 289 287 286 285 285 286 285 284 283 282 281 282 283 284 283 284 285 286 286 285 284 284 284
257 257 257 258 258 258 259 260 261 262 263 263 263 264 265 266 266 267 268 268 269 270 270 271 271 272 273 274 275 276 278 280 282 285 286 288 288 289 290 289 288 287 286 286 286 286 285 283 282 282 281 281 282 283 283 284 285 285 284 284 284 284 284
259 259 259 258 258 259 259 260 260 261 262 263 264 264 265 265 266 266 267 268 269 270 270 271 271 272 273 274 275 277 278 280 282 284 285 286 287 288 288 288 287 287 286 285 285 284 283 282 282 282 281 281 282 283 283 284 284 284 283 283 283 283 283
260 260 260 261 261 261 261 261 262 262 263 264 264 265 265 266 266 266 267 268 269 270 271 272 272 273 274 275 276 278 279 281 282 284 285 286 287 287 288 288 287 287 287 286 285 284 283 282 281 281 281 281 281 282 283 283 284 284 284 283 283 283 283
260 261 262 262 263 263 264 264 264 264 265 265 266 267 267 268 268 268 269 269 270 271 272 273 274 275 276 277 278 279 281 282 283 284 285 286 286 287 287 286 286 285 286 286 286 285 284 284 284 284 283 283 283 283 284 284 285 285 285 285 286 286 285
262 263 263 264 265 265 266 266 266 267 267 268 269 269 270 270 271 271 272 272 273 273 274 275 276 277 278 279 280 281 282 283 284 284 285 285 286 286 285 285 284 283 283 284 284 284 285 285 285 285 285 285 285 285 286 286 286 286 286 287 287 287 287
263 264 265 266 266 266 267 267 268 269 270 270 271 272 272 272 273 273 274 274 275 275 276 276 277 278 279 280 281 282 283 284 284 285 285 285 285 284 284 284 283 283 283 283 283 283 283 284 284 284 285 285 286 285 285 285 285 285 286 286 286 285 285
Height
10665 10667 10669 10671 10672 10673 10674 10675 10676 10677 10677 10678 10678 10678 10679 10679 10680 10680 10681 10681 10681 10681 10680 10679 10679 10678 10677 10677 10677 10676 10676 10676 10676 10676 10675 10674 10673 10672 10672 10671 10671 10670 10669 10668 10667 10667 10666 10666 10665 10666 10667 10667 10668 10668 10668 10669 10669 10669 10669 10668 10668 10668 10668
10661 10663 10665 10666 10668 10669 10670 10671 10672 10673 10673 10674 10674 10675 10675 10676 10676 10677 10677 10678 10678 10678 10677 10677 10676 10675 10675 10674 10674 10673 10673 10673 10673 10673 10672 10671 10670 10670 10669 10669 10668 10668 10667 10667 10666 10665 10665 10664 10664 10664 10664 10664 10664 10665 10665 10665 10665 10666 10666 10665 10665 10665 10665
10658 10659 10660 10662 10663 10664 10666 10667 10668 10669 10669 10670 10670 10671 10671 10672 10673 10673 10674 10675 10675 10675 10675 10674 10673 10673 10672 10671 10671 10670 10670 10670 10670 10670 10669 10668 10667 10667 10666 10666 10665 10665 10665 10665 10665 10664 10664 10663 10663 10662 10661 10661 10661 10661 10661 10661 10661 10662 10662 10661 10661 10661 10661
10655 10656 10656 10657 10658 10659 10661 10662 10663 10664 10664 10665 10666 10667 10667 10668 10669 10670 10671 10671 10672 10672 10672 10671 10671 10670 10669 10668 10667 10667 10666 10666 10666 10666 10666 10665 10664 10664 10663 10663 10663 10663 10663 10663 10663 10662 10662 10661 10661 10660 10659 10659 10658 10657 10656 10656 10656 10657 10657 10656 10656 10656 10656
10651 10652 10652 10653 10654 10655 10656 10657 10658 10659 10660 10661 10662 10663 10663 10664 10665 10666 10666 10667 10668 10668 10668 10668 10668 10668 10667 10665 10664 10663 10662 10662 10663 10663 10663 10662 10661 10661 10661 10660 10660 10660 10660 10660 10659 10659 10659 10659 10659 10658 10657 10656 10655 10654 10652 10652 10653 10653 10652 10652 10652 10651 10651
10646 10647 10648 10648 10649 10650 10651 10652 10654 10655 10655 10656 10657 10658 10659 10660 10661 10662 10662 10663 10664 10664 10664 10664 10665 10664 10664 10663 10661 10660 10658 10658 10658 10659 10659 10659 10658 10657 10657 10657 10658 10658 10657 10657 10656 10656 10656 10656 10656 10655 10654 10653 10652 10650 10649 10649 10649 10649 10648 10648 10647 10647 10646
10640 10641 10642 10643 10643 10645 10646 10648 10649 10650 10651 10652 10653 10654 10655 10656 10657 10657 10658 10658 10659 10660 10660 10660 10661 10661 10660 10659 10658 10657 10655 10654 10654 10654 10655 10655 10654 10654 10654 10654 10654 10654 10654 10653 10653 10653 10653 10652 10652 10651 10650 10649 10648 10647 10646 10645 10645 10645 10644 10644 10643 10642 10642
10635 10636 10636 10637 10639 10640 10641 10643 10645 10646 10647 10647 10648 10649 10651 10651 10652 10653 10653 10653 10654 10655 10655 10656 10656 10656 10656 10656 10655 10654 10652 10651 10651 10651 10651 10651 10651 10650 10650 10650 10650 10650 10650 10649 10649 10649 10649 10648 10648 10647 10646 10645 10644 10643 10642 10641 10641 10641 10640 10639 10639 10638 10637
10629 10630 10631 10633 10634 10635 10637 10639 10640 10641 10642 10642 10643 10644 10645 10646 10647 10648 10648 10648 10649 10650 10651 10651 10652 10651 10651 10651 10650 10650 10649 10648 10648 10648 10648 10648 10647 10647 10646 10646 10646 10646 10645 10645 10644 10644 10644 10644 10643 10643 10642 10641 10640 10639 10638 10638 10637 10636 10635 10634 10634 10633 10633
10623 10625 10627 10629 10630 10631 10633 10634 10635 10635 10636 10636 10637 10638 10639 10640 10641 10643 10643 10643 10644 10645 10646 10646 10647 10647 10647 10646 10646 10645 10645 10645 10644 10644 10644 10644 10644 10644 10643 10643 10642 10642 10641 10641 10640 10640 10639 10639 10638 10638 10637 10636 10636 10634 10633 10633 10632 10631 10630 10630 10629 10629 10628
10619 10621 10623 10624 10625 10625 10626 10628 10629 10630 10630 10631 10631 10632 10633 10634 10636 10637 10638 10638 10639 10640 10640 10641 10642 10642 10642 10641 10641 10641 10641 10641 10641 10641 10641 10641 10641 10640 10640 10639 10639 10638 10638 10637 10636 10636 10635 10634 10634 10633 10632 10631 10630 10629 10628 10628 10627 10627 10626 10625 10624 10624 10623
10614 10617 10619 10620 10620 10619 10620 10621 10623 10624 10625 10625 10626 10626 10627 10629 10630 10632 10633 10633 10634 10635 10635 10636 10636 10637 10637 10637 10636 10636 10636 10637 10637 10637 10637 10637 10636 10636 10636 10635 10635 10634 10634 10633 10632 10631 10631 10630 10629 10629 10627 10626 10625 10624 10623 10623 10622 10622 10621 10620 10619 10619 10618
10609 10613 10616 10616 10615 10614 10614 10615 10617 10619 10620 10620 10621 10621 10622 10624 10625 10626 10627 10628 10629 10630 10630 10631 10632 10632 10632 10632 10632 10632 10632 10632 10632 10632 10632 10632 10631 10631 10631 10631 10630 10630 10629 10628 10628 10627 10626 10625 10625 10624 10622 10621 10619 10619 10618 10618 10617 10616 10616 10615 10614 10613 10612
10606 10608 10610 10611 10611 10610 10610 10610 10611 10613 10614 10615 10615 10616 10617 10619 10620 10620 10621 10622 10623 10624 10625 10626 10626 10627 10627 10627 10627 10627 10627 10627 10627 10627 10626 10626 10626 10626 10626 10626 10626 10625 10624 10623 10623 10622 10622 10621 10620 10619 10618 10616 10614 10613 10613 10612 10611 10611 10610 10609 10608 10606 10605
10602 10603 10605 10606 10606 10606 10605 10605 10605 10607 10608 10609 10610 10611 10612 10613 10614 10615 10616 10617 10617 10618 10619 10620 10621 10621 10622 10622 10622 10622 10622 10622 10622 10621 10621 10621 10621 10621 10621 10621 10620 10619 10619 10618 10618 10617 10616 10615 10614 10613 10612 10610 10609 10607 10607 10606 10605 10604 10603 10602 10600 10599 10597
10598 10599 10600 10600 10600 10600 10599 10598 10599 10601 10601 10602 10603 10604 10605 10606 10608 10609 10610 10610 10611 10612 10613 10614 10615 10616 10616 10616 10617 10617 10616 10616 10616 10616 10615 10615 10615 10615 10615 10615 10614 10613 10613 10612 10612 10611 10610 10609 10608 10607 10605 10604 10602 10601 10600 10599 10598 10598 10597 10595 10593 10592 10590
10594 10595 10595 10594 10594 10594 10593 10593 10594 10595 10594 10596 10597 10598 10599 10600 10601 10603 10604 10604 10605 10605 10606 10607 10608 10610 10610 10610 10611 10611 10610 10610 10610 10609 10609 10608 10608 10608 10608 10608 10607 10607 10606 10605 10605 10604 10603 10602 10601 10600 10598 10597 10595 10594 10593 10592 10591 10590 10589 10587 10586 10585 10583
10589 10589 10589 10589 10589 10590 10590 10589 10590 10590 10589 10590 10591 10593 10593 10594 10595 10596 10597 10598 10599 10600 10600 10601 10602 10603 10604 10604 10604 10605 10604 10604 10603 10603 10602 10601 10601 10600 10600 10601 10600 10600 10599 10598 10597 10596 10595 10595 10594 10593 10592 10590 10589 10587 10586 10585 10584 10583 10581 10580 10578 10577 10575
10584 10584 10584 10583 10584 10585 10586 10586 10586 10585 10585 10585 10586 10587 10589 10590 10590 10591 10591 10592 10593 10594 10594 10594 10595 10596 10597 10598 10598 10598 10598 10598 10597 10596 10595 10594 10593 10593 10593 10593 10593 10593 10592 10590 10589 10588 10587 10586 10586 10585 10584 10583 10582 10581 10579 10578 10577 10575 10574 10572 10571 10569 10566
10579 10579 10579 10579 10579 10580 10581 10581 10581 10580 10579 10580 10581 10582 10584 10586 10586 10586 10587 10587 10588 10588 10588 10589 10589 10590 10590 10591 10591 10592 10591 10591 10590 10589 10588 10587 10587 10586 10586 10586 10585 10585 10584 10583 10581 10580 10579 10578 10577 10577 10576 10575 10574 10573 10571 10570 10568 10567 10565 10564 10562 10560 10558
10573 10574 10575 10574 10573 10575 10576 10576 10574 10574 10574 10573 10574 10576 10579 10581 10581 10581 10582 10582 10583 10583 10583 10583 10584 10584 10584 10584 10584 10585 10585 10584 10584 10583 10582 10581 10580 10579 10579 10578 10578 10577 10576 10575 10574 10572 10571 10570 10569 10568 10567 10566 10565 10564 10562 10560 10559 10557 10555 10554 10552 10550 10549
10568 10569 10569 10568 10567 10569 10571 10570 10569 10569 10569 10567 10567 10569 10572 10573 10574 10574 10575 10576 10576 10576 10577 10577 10578 10578 10578 10578 10577 10577 10577 10577 10576 10575 10574 10573 10573 10572 10572 10571 10569 10569 10568 10567 10566 10565 10564 10563 10562 10561 10559 10558 10557 10555 10553 10552 10550 10548 10546 10544 10542 10541 10539
10564 10564 10564 10562 10562 10563 10564 10565 10565 10565 10564 10563 10562 10562 10564 10565 10566 10566 10566 10567 10567 10568 10568 10568 10570 10571 10570 10570 10570 10570 10569 10569 10568 10567 10566 10566 10565 10565 10564 10562 10561 10560 10560 10559 10559 10558 10557 10556 10555 10553 10552 10550 10549 10547 10545 10543 10541 10539 10537 10535 10533 10532 10530
10557 10557 10558 10558 10558 10558 10559 10560 10561 10560 10560 10558 10557 10557 10557 10558 10559 10559 10559 10559 10559 10560 10560 10560 10560 10561 10562 10562 10562 10562 10561 10560 10559 10558 10557 10556 10556 10556 10556 10555 10554 10553 10553 10552 10552 10551 10550 10549 10547 10546 10545 10543 10541 10539 10537 10535 10533 10531 10530 10528 10526 10525 10523
10551 10551 10552 10553 10553 10554 10555 10555 10555 10555 10555 10554 10553 10553 10553 10553 10553 10553 10553 10553 10553 10553 10553 10553 10553 10553 10554 10555 10555 10554 10554 10553 10552 10551 10550 10549 10549 10549 10549 10548 10547 10547 10546 10545 10544 10544 10543 10541 10540 10539 10537 10535 10533 10531 10530 10528 10527 10525 10524 10522 10520 10518 10516
10546 10546 10547 10547 10548 10548 10549 10549 10549 10550 10550 10549 10549 10548 10548 10548 10548 10548 10548 10547 10547 10547 10547 10547 10547 10547 10547 10547 10548 10547 10547 10546 10546 10545 10544 10543 10543 10543 10542 10542 10541 10540 10539 10538 10537 10536 10535 10534 10533 10531 10529 10527 10525 10523 10522 10521 10519 10518 10516 10514 10511 10509 10507
10541 10541 10542 10542 10542 10542 10542 10542 10542 10543 10544 10544 10543 10542 10542 10542 10542 10542 10542 10541 10541 10541 10541 10541 10541 10541 10541 10541 10541 10540 10540 10539 10539 10538 10537 10537 10536 10536 10536 10535 10534 10533 10531 10530 10529 10527 10527 10526 10525 10523 10522 10519 10517 10515 10514 10512 10510 10508 10506 10504 10503 10501 10499
10535 10536 10536 10536 10537 10536 10535 10534 10534 10536 10537 10537 10537 10536 10535 10535 10535 10535 10535 10534 10534 10535 10535 10535 10534 10534 10534 10534 10534 10533 10533 10533 10532 10531 10531 10530 10529 10529 10528 10527 10526 10525 10523 10522 10520 10518 10518 10517 10517 10516 10513 10510 10508 10506 10504 10502 10501 10499 10497 10496 10495 10494 10492
10528 10529 10529 10530 10530 10529 10527 10526 10527 10529 10530 10530 10530 10529 10528 10528 10528 10528 10528 10527 10527 10527 10527 10527 10527 10526 10526 10526 10526 10525 10525 10524 10524 10523 10523 10522 10522 10521 10520 10519 10518 10516 10514 10512 10510 10510 10510 10510 10509 10507 10504 10501 10500 10497 10495 10493 10492 10491 10489 10489 10488 10486 10484
10520 10521 10522 10523 10523 10522 10520 10519 10519 10521 10522 10524 10523 10520 10520 10521 10521 10520 10520 10518 10518 10519 10519 10519 10518 10518 10517 10517 10517 10517 10517 10516 10516 10515 10514 10513 10513 10513 10512 10511 10510 10506 10504 10502 10501 10501 10502 10502 10500 10497 10494 10492 10491 10489 10487 10485 10484 10483 10482 10482 10481 10478 10476
10513 10513 10514 10515 10515 10515 10514 10513 10513 10513 10514 10516 10515 10511 10511 10513 10513 10511 10511 10510 10509 10509 10510 10509 10509 10508 10508 10508 10508 10508 10508 10508 10507 10506 10505 10504 10503 10503 10503 10501 10498 10495 10493 10492 10491 10491 10492 10491 10490 10487 10483 10482 10482 10480 10477 10475 10475 10475 10474 10473 10472 10470 10468
10504 10505 10506 10507 10507 10507 10507 10506 10506 10505 10505 10507 10506 10504 10503 10504 10504 10503 10502 10501 10500 10499 10499 10500 10499 10499 10499 10499 10499 10498 10498 10499 10498 10497 10496 10495 10493 10493 10493 10490 10485 10483 10483 10481 10479 10479 10479 10479 10478 10476 10473 10472 10472 10470 10467 10465 10466 10466 10464 10463 10462 10461 10460
10495 10496 10496 10497 10498 10498 10498 10498 10498 10498 10497 10497 10497 10496 10495 10495 10494 10494 10493 10492 10491 10490 10489 10489 10489 10489 10489 10488 10488 10488 10488 10488 10488 10487 10486 10485 10483 10483 10483 10480 10474 10472 10473 10473 10471 10469 10468 10467 10467 10465 10463 10461 10462 10460 10457 10455 10456 10456 10455 10454 10453 10452 10451
10486 10487 10487 10488 10488 10489 10489 10490 10490 10489 10489 10488 10488 10487 10486 10486 10486 10485 10484 10483 10482 10481 10479 10478 10478 10478 10479 10478 10477 10476 10476 10476 10477 10477 10476 10475 10473 10471 10471 10470 10466 10462 10461 10462 10462 10461 10460 10459 10458 10458 10456 10453 10452 10452 10449 10446 10445 10445 10444 10444 10444 10443 10441
10478 10478 10478 10479 10479 10479 10479 10480 10480 10480 10479 10479 10478 10478 10477 10476 10476 10475 10475 10474 10473 10472 10470 10468 10467 10466 10466 10466 10466 10465 10464 10464 10465 10465 10464 10463 10462 10461 10459 10459 10457 10453 10450 10449 10449 10448 10447 10446 10446 10447 10444 10442 10442 10442 10440 10438 10436 10434 10432 10432 10432 10431 10429
10469 10470 10470 10469 10469 10469 10469 10469 10469 10469 10469 10468 10468 10467 10467 10466 10465 10464 10464 10463 10462 10462 10460 10459 10457 10455 10453 10453 10453 10454 10453 10452 10452 10453 10453 10452 10451 10450 10449 10447 10446 10443 10442 10441 10439 10436 10435 10433 10433 10432 10430 10429 10430 10430 10429 10427 10425 10423 10421 10421 10421 10419 10417
10460 10460 10460 10460 10459 10459 10459 10459 10459 10458 10458 10458 10457 10456 10456 10455 10455 10454 10452 10452 10451 10450 10450 10448 10447 10444 10442 10440 10439 10439 10440 10440 10439 10439 10439 10439 10439 10438 10437 10435 10433 10432 10431 10430 10429 10428 10426 10424 10423 10421 10419 10418 10418 10418 10418 10416 10414 10412 10411 10411 10411 10408 10406